WESTFORD NEEDLES, 3255

Orbit data source: Space-Track

WESTFORD NEEDLES, 3255 is space debris in LEO originally from a launch on Thu, 09 May 1963 UTC launched from the Air Force Western Test Range (AFWTR). Debris objects in space refer to the collection of defunct objects orbiting the Earth. Examples of debris include non-operational satellites, rocket bodies, and fragments generated from explosions, collisions, or faulty payload assembly.

Loading next visibility...
Identifier
3255, 1963-014BV
Orbit
LEO
Last TLE update
12 hours ago
Origin
Manufacturer
Unknown
Mission
Spacecraft
Bus & Motor
Unknown
Mass
Unknown
Launch date (UTC)
Icon of a cake. It is the launch day of the satellite!1963-05-09 (62 years ago)
Launch vehicle
Unknown
Launch site
Air Force Western Test Range (AFWTR)
Object type
Payload
Rocket body
Debris
Shape & HBR
Unknown
Radar Cross Section
Medium (>0.1 m² and <1 m²)

Expand to show TLE details & history

TLE from 12 hours ago
0 WESTFORD NEEDLES
1  3255U 63014BV  25129.17182982 -.00000007  00000-0 -44543-2 0  9997
2  3255  87.3552 207.4150 0020208 249.2507 110.6182  8.66743087 26564
Epoch: 2025-05-09T04:07Z
Definitive object data (Epoch: 2025-05-09T04:07:26.096Z)
Latitude
-0.00008°
Longitude
-81.67553°
Altitude
3,642.154 km
Speed
6.306 km/s
True Right ascension
13h 49m 39s
True Declination
0° 00' 00"
Sunlit
Object was in full shadow at TLE epoch
Visualization TLE readout
Latitude
45.4301°
Longitude
95.59947°
Altitude
3,647.636 km
Speed
6.307 km/s
Apparent Right ascension
03h 50m 22s
Apparent Declination
46° 52' 57"
Sunlit
Object is in daylight
Visualization observer readout
Local Sidereal Time
00:24:56
Azimuth
61.821° ENE
Elevation
52.724°
Doppler factor
1
Orbital elements
Apogee altitude
3,650.851 km
Perigee altitude
3,610.4 km
Semi-major axis
10,008.762 km
Eccentricity
0.0020208
Inclination
87.3552°
RAAN
207.415°
Arg. of periapsis
249.2507°
True anomaly
110.83474°
Mean anomaly
110.6182°
Eccentric anomaly
110.72649°
Mean motion
2.16757 °/min
BSTAR
-0.0044543
Orbital period
166.08 mins
Loading maneuver chart data...
Loading SW <> Apogee altitude chart data...

WESTFORD NEEDLES Visibility forecast

Observer location: undefined°, undefined°

Span
Click to sort rows by Start time (UTC) header in descending order
Start Az.
Max El. time (UTC)
Max El. Az.
Max El.
End time (UTC)
End Az.
20 mins2025-05-09 16:14:29.531Z62.031° ENE2025-05-09 16:16:29.531Z79.429° E39.019°2025-05-09 16:34:29.531Z154.874° SSE
32 mins2025-05-09 18:46:29.531Z349.415° N2025-05-09 19:01:29.531Z289.706° WNW35.795°2025-05-09 19:18:29.531Z221.24° SW
19 mins2025-05-10 02:31:29.531Z86.993° E2025-05-10 02:40:29.531Z55.51° ENE17.641°2025-05-10 02:50:29.531Z21.107° NNE
36 mins2025-05-10 05:04:29.531Z166.562° S2025-05-10 05:21:29.531Z91.969° ESE44.307°2025-05-10 05:40:29.531Z3.753° NNE
29 mins2025-05-10 07:56:29.531Z240.62° WSW2025-05-10 08:10:29.531Z294.303° NW26.412°2025-05-10 08:25:29.531Z350.497° N
24 mins2025-05-10 14:10:29.531Z16.217° NNE2025-05-10 14:21:29.531Z55.356° ENE19.245°2025-05-10 14:34:29.531Z101.345° ESE
|